DECAYED
Showing default

JILIN-01 GAOFEN 3D, 46456 (Decayed)

Orbit data source: Space-Track

JILIN-01 GAOFEN 3D, 46456 was a Chinese payload satellite in LEO that was launched on Tue, 15 Sep 2020 UTC via a CHANG ZHENG 11 launch vehicle from the Yellow Sea Launch Area, China (YSLA). Payload-class satellites include a variety of spacecraft equipped with specific instruments for various scientific and technological missions. These include communications satellites like Starlink; space stations such as the ISS; scientific satellites like the Hubble; Earth observation satellites from companies like Planet Labs, Umbra, and HawkEye 360; GPS; miniature CubeSats for education and research; and military/defense satellites.

Not visible in the next 10 days
Identifier
46456, 2020-065C
Orbit
Decayed
Country
Flag of CNCN / PRC
Related business
None
Manufacturer
Unknown
Mission
Decayed Commercial Imaging
Bus & Motor
Unknown
Mass
Unknown
Launch date (UTC)
2020-09-15 (6 years ago)
Launch vehicle
CHANG ZHENG 11
Launch site
Yellow Sea Launch Area, China (YSLA)
Object type
Payload
Rocket body
Debris
Shape & HBR
Box + 2 Pan, 0.8 m
Radar Cross Section
2.000 m², Medium (>0.1 m² and < 1m²)

Expand to show TLE details & history
Last TLE update: 6 months ago

TLE from 6 months ago
0 JILIN-01 GAOFEN 3D
1 46456U 20065C   26001.87826669  .11173255  24506-5  35518-3 0  9991
2 46456  97.2457  65.1102 0007278 278.1125  81.9351 16.44423993294698
Epoch: 2026-01-01T21:04Z
TLE epoch observation values (Epoch: 2026-01-01T21:04:42.242Z)
Latitude
-0.00003°
Longitude
7.40768°
Altitude
156.658 km
Speed
7.813 km/s
True Right ascension
04h 20m 26s
True Declination
0° 00' 00"
Sunlit
Object was in full shadow at epoch
Visualization orbit readout
Latitude
Unknown
Longitude
Unknown
Altitude
Unknown
Speed
Unknown
Apparent Right ascension
Unknown
Apparent Declination
Unknown
Sunlit
N/A
Visualization observer readout
Local Sidereal Time
21:39:52
Azimuth
Unknown
Elevation
Unknown
Doppler factor
Unknown
Orbital elements
Apogee altitude
155.607 km
Perigee altitude
146.104 km
Semi-major axis
6,528.992 km
Eccentricity
0.00073
Inclination
97.2457°
RAAN
65.1102°
Arg. of periapsis
278.1125°
True anomaly
82.01769°
Mean anomaly
81.9351°
Eccentric anomaly
81.97639°
Mean motion
4.11409 °/min
Orbital period
87.5 mins
BSTAR
0.00035518
Loading maneuver chart data...
Computing Atmospheric mass density...
Loading historical data...
Loading historical data...
Loading historical data...
Loading historical data...
Loading historical data...
Loading historical data...
Loading historical data...

Documentation

Showing up to 5 results
|